Location: Alsmoos
(48.5102°N, 11.0296°E)
Time: 06:16:15
(UTC+00:00)

Daily predictions for brighter satellites

Satellite Brightness Start Highest point End
(mag) Time Altitude Azimuth Time Altitude Azimuth Time Altitude Azimuth
Cosmos 2228 Rocket 4.1 19:54:42 10° SSE 19:58:41 31° E 20:02:42 10° NNE
Okean O Rocket 3.2 19:55:50 10° SSW 19:59:49 33° W 20:03:48 10° NNW
Atlas Centaur 2 4.4 19:55:29 10° SW 20:00:44 19° S 20:06:10 10° SSE
Cosmos 1674 4.4 20:02:44 10° SW 20:05:52 32° WNW 20:09:02 10° N
Meteor 1-4 Rocket 4.1 20:12:49 10° ESE 20:14:26 14° E 20:16:05 10° NE
Ariane Rocket 3.2 20:11:16 10° SSE 20:16:17 63° ENE 20:21:20 10° N
RESURS DK-1 2.5 20:12:43 10° NNW 20:16:48 73° WSW 20:20:51 10° SSE
Meteor 2-10 Rocket 3.7 20:12:06 10° N 20:17:42 75° ENE 20:23:01 10° SSE
CZ-4C R/B 3.8 20:14:23 10° N 20:18:31 70° WNW 20:22:36 10° SSW
BREEZE-M DEB (TANK) 3.2 20:10:19 10° WSW 20:20:11 74° NNW 20:23:08 10° ENE
Cosmos 1758 3.3 20:18:06 10° N 20:22:01 65° E 20:25:55 10° SSE
Cosmos 2322 Rocket 2.3 20:16:48 10° NNW 20:22:32 88° WSW 20:28:13 10° SSE
Cosmos 1300 2.6 20:20:31 10° N 20:24:03 63° ENE 20:27:28 11° SSE
EXPRESS MD2 2.2 20:21:21 10° W 20:24:17 81° NNW 20:26:30 10° ENE
MOS 1 Rocket 3.7 20:19:15 10° SSE 20:24:37 73° ENE 20:29:51 10° N
Cosmos 1862 Rocket 4.1 20:21:35 10° SSE 20:25:41 41° E 20:29:51 10° NNE
SL-4 R/B 2.7 20:27:03 10° WNW 20:30:48 53° N 20:34:49 10° E
Cosmos 1850 Rocket 4.0 20:26:42 10° SSW 20:31:53 72° ESE 20:37:05 10° NNE
Resurs 01 Rocket 4.3 20:30:25 10° WSW 20:32:37 14° W 20:34:50 10° WNW
Cosmos 2315 Rocket 4.1 20:28:07 10° N 20:34:32 84° E 20:40:56 10° S
Meteor 1-12 Rocket 4.5 20:29:03 10° NNW 20:35:06 82° W 20:41:06 10° S
SJ 16-02 1.8 20:34:17 10° S 20:38:18 40° ESE 20:42:21 10° NE
SPOT 5 3.9 20:34:29 10° SSW 20:38:28 36° W 20:42:33 10° NNW
SeaSat 1 2.7 20:34:50 11° SSE 20:39:35 64° WSW 20:44:30 10° NW
Cosmos 968 Rocket 3.5 20:36:03 10° S 20:41:06 60° ESE 20:46:13 10° NNE
Cosmos 2219 Rocket 2.5 20:40:10 10° NNW 20:45:49 62° ENE 20:50:39 14° SE
Cosmos 1707 Rocket 3.5 20:41:28 10° S 20:45:54 78° E 20:50:21 10° NNE
Cosmos 1400 Rocket 3.7 20:44:03 10° SSW 20:47:49 48° WNW 20:51:32 10° N
ATLAS CENTAUR R/B 1.1 20:47:58 10° SW 20:51:28 77° NW 20:55:06 10° NE
COSMOS 2428 3.7 20:46:12 10° NNW 20:51:29 37° NE 20:56:33 11° ESE
SPOT 3 Rocket 3.7 20:46:45 11° S 20:51:44 74° WSW 20:56:56 10° NNW
Cosmos 1741 Rocket 4.1 20:47:45 10° SSW 20:53:02 83° WNW 20:58:23 10° NNE
Cosmos 1814 Rocket 4.0 20:50:01 10° NNW 20:55:21 86° ENE 20:59:41 16° SSE
Meteor 1-21 4.3 20:49:40 10° S 20:55:28 82° E 21:01:19 10° NNE
USA 234 3.2 20:50:21 10° ENE 20:56:56 75° SE 21:03:27 10° SW
Landsat 4 4.3 20:58:07 13° S 21:01:03 46° W 21:04:23 10° NNW
Cosmos 1356 Rocket 3.8 20:57:09 10° SSW 21:01:19 67° WNW 21:05:31 10° N
Cosmos 1733 Rocket 3.5 21:00:01 10° NNW 21:04:22 60° W 21:08:17 13° S
Okean 1-7 3.3 21:01:50 17° SSE 21:05:00 52° E 21:09:13 10° NNE
Cosmos 1953 2.6 21:01:24 10° N 21:05:10 51° ENE 21:07:31 20° SSE
Okean 2 3.7 21:02:37 18° SSE 21:05:20 48° E 21:09:13 10° NNE
BlueWalker 3 2.7 21:03:46 10° SSW 21:07:02 29° SE 21:10:19 10° ENE
Terra 2.9 21:02:52 10° SSW 21:07:15 38° W 21:11:39 10° NNW
Cosmos 1315 Rocket 3.0 21:06:12 18° S 21:09:01 55° E 21:12:56 10° NNE
ARIANE 5 R/B 3.6 21:07:44 16° SE 21:10:37 34° ENE 21:14:33 10° N
Cosmos 2360 Rocket 2.8 21:06:01 10° NW 21:11:29 49° WSW 21:16:01 15° S
Meteor 2-20 Rocket 4.5 21:07:46 10° N 21:14:06 86° E 21:18:52 17° S
ERS-1 Rocket 4.5 21:09:56 10° SSW 21:14:21 31° W 21:18:47 10° NNW
Cosmos 1241 Rocket 4.4 21:09:27 10° SSW 21:15:36 72° ESE 21:21:50 10° NE
Cosmos 1455 2.0 21:15:30 10° N 21:19:01 65° E 21:20:53 25° SSE
Cosmos 1908 Rocket 3.6 21:15:40 10° N 21:20:00 68° ENE 21:22:42 22° SSE
SL-27 R/B 3.9 21:17:42 10° SW 21:20:10 28° WNW 21:22:41 10° N
Cosmos 1782 Rocket 4.3 21:18:54 10° N 21:22:58 39° ENE 21:25:25 21° SE
GP-B 3.6 21:19:30 10° NNE 21:23:46 46° E 21:26:13 23° SSE
SL-16 R/B 4.1 21:20:16 10° NW 21:24:20 20° W 21:28:22 10° SW
Nadezhda 1 Rocket 4.3 21:19:56 10° N 21:26:08 56° ENE 21:30:24 20° SSE
BREEZE-M DEB (TANK) 4.2 21:22:32 10° WSW 21:27:06 90° NNW 21:47:18 10° E
Aureole 3 4.2 21:25:42 11° SSW 21:29:37 58° WNW 21:34:40 10° N
Cosmos 2333 Rocket 3.2 21:25:39 10° NW 21:30:57 39° WSW 21:35:13 15° S
GENESIS II 4.1 21:29:18 19° SSW 21:31:40 53° SE 21:35:14 10° NE
Cosmos 1300 Rocket 4.1 21:34:25 10° N 21:38:35 46° ENE 21:40:48 24° SE
COSMOS 2455 3.4 21:38:31 21° SSE 21:41:47 38° ESE 21:47:17 10° NE
Landsat 5 4.3 21:39:18 10° N 21:43:11 48° WNW 21:47:10 10° SW
ATLAS 2AS CENTAUR R/B 3.5 21:37:30 10° NW 21:43:39 37° WSW 21:47:58 18° S
Meteor 1-4 Rocket 3.8 21:44:36 12° SW 21:47:00 29° WNW 21:49:41 10° N
Cosmos 2237 Rocket 3.2 21:42:28 10° NNW 21:47:50 41° NE 21:52:14 14° ESE
USA 281 3.2 21:43:40 21° SSE 21:48:21 83° ENE 21:54:59 10° NNW
Cosmos 1242 Rocket 1.8 21:47:48 40° SSW 21:48:38 78° W 21:51:24 10° N
Spot 4 4.5 21:47:55 22° SE 21:50:43 45° ENE 21:55:19 10° N
Cosmos 2322 3.7 21:47:17 10° NNW 21:52:57 74° WSW 21:56:21 25° SSE
Cosmos 1486 Rocket 4.4 21:52:17 25° SSE 21:54:50 45° ESE 21:59:47 10° NE
Cosmos 2227 Rocket 3.9 21:53:22 14° ESE 21:55:01 16° E 21:58:22 10° ENE
NOSS 0 Rocket 4.0 21:50:46 10° NNW 21:57:02 74° ENE 22:01:13 22° SE
ALOS 2 3.6 21:57:54 21° ESE 22:00:15 38° ENE 22:04:19 10° N
H-2A R/B 2.8 21:58:24 28° SE 22:00:30 60° ENE 22:04:42 10° N
Cosmos 1980 4.3 21:55:49 10° NNW 22:01:21 52° NE 22:05:18 19° SE
Cosmos 1703 Rocket 3.9 21:59:28 20° SSW 22:02:31 63° WNW 22:06:57 10° N
Meteor 1-24 Rocket 4.5 22:00:23 23° SE 22:03:17 39° E 22:08:26 10° NNE
Cosmos 2322 Rocket 4.4 22:02:35 10° WNW 22:05:43 15° W 22:08:51 10° SW
SL-4 R/B 1.9 22:05:47 10° WNW 22:09:46 84° SSW 22:12:22 22° ESE
Cosmos 2297 Rocket 2.7 22:11:53 27° SSE 22:14:21 41° ESE 22:19:37 10° NE
SJ 16-02 3.4 22:13:13 10° WSW 22:16:47 25° WNW 22:20:23 10° N
Cosmos 1709 Rocket 4.0 22:14:43 25° S 22:18:38 74° E 22:24:59 10° NNE
Cosmos 158 Rocket 4.3 22:18:40 10° NNW 22:23:52 58° WSW 22:26:23 29° S
BREEZE-M DEB (TANK) 3.8 22:22:04 10° W 22:25:17 80° N 22:35:16 10° E
Cosmos 2242 Rocket 3.6 22:23:28 31° S 22:25:37 87° E 22:30:12 10° N
Cosmos 1408 2.3 22:27:18 46° SW 22:27:56 60° WNW 22:30:54 10° N
MINOTAUR 4 R/B 4.2 22:25:20 10° N 22:28:10 48° WNW 22:28:58 35° WSW
Cosmos 2219 Rocket 3.7 22:24:51 10° NW 22:29:19 24° WSW 22:32:21 16° SW
ATLAS CENTAUR R/B 4.2 22:27:40 10° WNW 22:29:46 15° NNW 22:31:53 10° N
CZ-4C R/B 1.8 22:28:53 28° SSW 22:31:14 66° SE 22:36:49 10° NE
EXPRESS MD2 3.2 22:29:33 10° WNW 22:30:57 34° WNW 22:30:57 34° WNW
COSMOS 2428 3.3 22:30:27 10° NW 22:35:49 44° WSW 22:38:32 26° SSW
CENTAUR R/B 3.3 22:37:03 24° SE 22:38:51 29° ESE 22:44:25 10° NE
USA 234 4.1 22:33:28 10° NE 22:39:48 53° NNW 22:46:06 10° W
BREEZE-M DEB (TANK) 3.3 22:28:22 10° W 22:40:12 84° N 22:43:37 10° E
Meteor 2-5 Rocket 3.8 22:40:28 29° S 22:43:41 80° E 22:49:31 10° NNE
Cosmos 405 Rocket 2.6 22:41:12 10° N 22:44:58 77° ENE 22:46:03 44° SSE
BlueWalker 3 2.1 22:41:15 10° WSW 22:45:00 68° NNW 22:48:44 10° ENE
Cosmos 2263 Rocket 4.0 22:43:42 14° ESE 22:45:30 16° E 22:48:41 10° ENE
ARIANE 5 R/B 4.0 22:45:12 20° SW 22:47:03 27° W 22:50:47 10° NW
Cosmos 773 Rocket 4.1 22:45:27 10° NNW 22:50:32 63° WSW 22:52:47 33° S
Cosmos 1174 4.0 22:46:07 10° NW 22:51:10 83° NE 22:52:57 34° SE
Okean 1 Rocket 3.9 22:49:21 10° N 22:53:30 42° ENE 22:55:26 26° SE
Cosmos 371 Rocket 3.5 22:53:41 24° SW 22:56:30 65° WNW 23:01:19 10° NNE
Cosmos 2084 Rocket 3.4 22:57:00 40° S 22:58:17 61° SE 23:02:23 10° NE
PSLV R/B 3.4 23:02:14 10° NNE 23:06:29 74° ESE 23:07:52 40° S
Cosmos 1892 2.5 23:05:53 50° SSE 23:06:32 63° E 23:10:01 10° NNE
Cosmos 1777 Rocket 4.0 23:05:54 29° SSW 23:08:41 85° WNW 23:14:01 10° NNE
H-2A R/B 2.3 23:05:34 10° NNE 23:09:43 51° E 23:10:59 37° SSE
Cosmos 1503 Rocket 4.2 23:07:09 25° SW 23:10:17 71° WNW 23:15:36 10° NNE
Cosmos 1538 Rocket 4.5 23:06:17 10° NNW 23:11:24 55° ENE 23:14:45 21° SE
Cosmos 1263 4.2 23:08:38 10° N 23:12:10 79° E 23:12:40 59° SSE
Cosmos 1703 4.3 23:12:38 24° WSW 23:14:04 34° WNW 23:17:28 10° N
Cosmos 2181 Rocket 4.2 23:17:35 10° NNW 23:23:41 62° W 23:26:52 29° SSW
NOSS 8 (A) 4.2 23:23:08 10° NW 23:26:08 71° SW 23:26:36 59° S
SL-16 R/B 2.4 23:20:28 10° NNW 23:26:11 68° ENE 23:30:12 20° SE
Cosmos 1825 1.8 23:26:52 54° SSW 23:27:32 78° W 23:30:59 10° N
COSMOS 2455 3.6 23:21:46 10° WSW 23:27:35 49° NW 23:33:28 10° NNE
Cosmos 1328 3.9 23:26:46 43° SSE 23:27:49 62° E 23:31:41 10° NNE
Cosmos 1455 Rocket 3.9 23:24:44 10° N 23:29:00 43° ENE 23:31:18 24° SE
Cosmos 2151 Rocket 4.0 23:25:17 10° NNW 23:29:33 50° W 23:31:01 34° SSW
NOSS 3-2 (A) 3.8 23:27:46 29° SSE 23:29:36 38° ESE 23:35:06 10° NE
GEOS 3 Rocket 4.1 23:24:53 10° NE 23:29:48 43° ESE 23:31:36 31° S
BREEZE-M DEB (TANK) 3.4 23:29:09 17° WSW 23:31:18 90° NW 23:38:08 10° E
Cosmos 2237 Rocket 2.9 23:26:39 10° NW 23:31:52 39° WSW 23:34:01 28° SSW
Cosmos 2074 Rocket 4.0 23:30:40 29° S 23:34:03 87° W 23:40:19 10° N
Okean 2 Rocket 3.6 23:31:31 10° NNW 23:35:49 48° W 23:37:23 33° SW
ALOS 2 4.0 23:35:18 22° WSW 23:36:41 25° W 23:40:21 10° NW
Cosmos 1674 Rocket 3.9 23:35:17 33° SW 23:37:02 57° WNW 23:41:20 10° N
Cosmos 1378 Rocket 4.1 23:35:17 29° SW 23:37:08 48° WNW 23:41:25 10° N
Cosmos 2227 Rocket 2.2 23:35:09 28° SSW 23:38:16 88° WNW 23:43:58 10° NNE
Cosmos 292 Rocket 4.4 23:37:19 30° SSE 23:39:05 42° ESE 23:43:37 10° NE
Cosmos 1025 Rocket 3.1 23:37:38 37° SSE 23:39:12 65° E 23:43:29 10° NNE
SL-4 R/B 3.6 23:44:53 10° W 23:47:03 21° WSW 23:47:03 21° WSW
Cosmos 1898 Rocket 4.1 23:47:23 27° SSE 23:49:38 43° ESE 23:54:30 10° NE
Cosmos 332 Rocket 4.2 23:48:04 25° SW 23:50:44 57° WNW 23:55:34 10° NNE
